Location: Unspecified
(51.0950°N, 12.9690°E)
Time: 18:49:02
(UTC+00:00)

BUGSAT 1 - Pass Details

Date: 14 May 2025
Orbit: 512 x 554 km, 98.1° (Epoch: 16 June)

Event Time Altitude Azimuth Distance (km) Brightness Sun altitude
Exits shadow 20:28:55 14° 178° (S) 1,540 ? -12.2°
Maximum altitude 20:32:08 61° 258° (WSW) 596 ? -12.5°
Drops below altitude 10° 20:35:53 10° 339° (NNW) 1,757 ? -12.8°
Sets 20:38:00 0° 343° (NNW) 2,646 ? -13.0°
